This demonstration page uses our WeatherBlox Daily Observations layout. Learn more.

41.55636, -103.73856

Hourly Observations for May 8, 2019

Temp ( °F °C ) Dew Point ( °F °C ) Humidity (%) Winds ( mph kmh ) Pressure ( in mb ) Visibility ( mi km ) Precip ( " mm )
12:08 am 00:08 Cloudy with Mist and Fog 43 6 43 6 100 100 E 7 11 29.94 1014 3 4.828032 0 0
12:18 am 00:18 Cloudy with Mist and Fog 43 6.1 43 6.1 100 100 E 7 11 29.94 1014 4 6.437376 0 0
12:53 am 00:53 Cloudy 43 6.1 43 6.1 100 100 ENE 6 9 29.88 1012 8 12.874752 0 0
1:08 am 01:08 Cloudy with Light Rain 43 6 43 6 100 100 E 6 9 29.94 1014 10 16.09344 0 0
1:25 am 01:25 Cloudy with Light Rain 45 7 N/A N/A NNE 5 7 29.94 1014 10 16.09344 0.001 0.001
1:35 am 01:35 Cloudy with Light Rain 45 7 N/A N/A E 3 6 29.94 1014 8 12.874752 0.001 0.001
1:53 am 01:53 Cloudy 45 7 N/A N/A E 3 6 29.85 1011 9 14.484096 0.001 0.001
2:53 am 02:53 Cloudy 44 6.7 44 6.7 100 100 E 7 11 29.83 1010 10 16.09344 0 0
3:53 am 03:53 Cloudy with Light Rain 43 6.1 43 6.1 100 100 NNE 8 13 29.88 1012 2.5 4.02336 0.001 0.001
4:08 am 04:08 Cloudy with Mist and Fog 43 6 43 6 100 100 NNE 9 15 29.94 1014 4 6.437376 0 0
4:16 am 04:16 Cloudy with Mist and Fog 43 6 43 6 100 100 NNE 12 19 29.91 1013 4 6.437376 0 0
4:53 am 04:53 Cloudy 42 5.6 41 5 96 96 N 9 15 29.85 1011 10 16.09344 0.01 0.254
5:14 am 05:14 Cloudy 43 6 39 4 87 87 N 10 17 29.94 1014 10 16.09344 0 0
5:53 am 05:53 Cloudy with Light Rain 41 5 39 3.9 93 93 N 12 19 29.88 1012 8 12.874752 0.001 0.001
6:04 am 06:04 Cloudy 41 5 37 3 87 87 N 12 19 29.97 1015 10 16.09344 0 0
6:39 am 06:39 Cloudy 41 5 37 3 87 87 NNW 12 19 29.97 1015 10 16.09344 0 0
6:48 am 06:48 Cloudy 41 5 37 3 87 87 NNW 12 19 29.97 1015 10 16.09344 0 0
6:53 am 06:53 Cloudy 40 4.4 38 3.3 93 93 N 12 19 29.91 1013 10 16.09344 0.001 0.001
7:53 am 07:53 Cloudy 40 4.4 38 3.3 93 93 NNW 13 20 29.94 1014 10 16.09344 0 0
8:53 am 08:53 Cloudy 41 5 38 3.3 89 89 N 14 22 29.94 1014 10 16.09344 0 0
9:37 am 09:37 Cloudy 41 5 37 2.8 86 86 N 16 26 29.97 1015 10 16.09344 0 0
9:53 am 09:53 Cloudy 41 5 37 2.8 86 86 N 18 30 29.94 1014 10 16.09344 0 0
10:53 am 10:53 Cloudy 41 5 36 2.2 82 82 N 16 26 29.97 1015 10 16.09344 0 0
11:53 am 11:53 Cloudy 41 5 36 2.2 82 82 N 16 26 29.97 1015 10 16.09344 0 0
12:53 pm 12:53 Cloudy 43 6.1 35 1.7 74 74 N 21 33 29.97 1015 10 16.09344 0 0
1:53 pm 13:53 Cloudy 45 7.2 35 1.7 68 68 N 16 26 29.97 1015 10 16.09344 0 0
2:53 pm 14:53 Cloudy 44 6.7 35 1.7 71 71 N 20 31 29.97 1015 10 16.09344 0 0
3:53 pm 15:53 Cloudy 43 6.1 34 1.1 71 71 N 17 28 30 1016 10 16.09344 0 0
4:53 pm 16:53 Cloudy 42 5.6 34 1.1 73 73 N 20 31 30.03 1017 10 16.09344 0 0
5:53 pm 17:53 Cloudy 41 5 34 1.1 76 76 N 18 30 30.06 1018 10 16.09344 0 0
6:53 pm 18:53 Cloudy 40 4.4 34 1.1 79 79 N 17 28 30.09 1019 10 16.09344 0 0
7:53 pm 19:53 Cloudy with Light Rain 38 3.3 35 1.7 89 89 N 13 20 30.12 1020 10 16.09344 0.01 0.254
8:13 pm 20:13 Cloudy with Light Rain 38 3.3 35 1.7 89 89 N 12 19 30.15 1021 10 16.09344 0.01 0.254
8:53 pm 20:53 Cloudy 38 3.3 35 1.7 89 89 N 10 17 30.12 1020 10 16.09344 0.02 0.508
9:23 pm 21:23 Cloudy 38 3.3 36 2.2 93 93 NNW 5 7 30.18 1022 10 16.09344 0 0
9:53 pm 21:53 Cloudy 38 3.3 35 1.7 89 89 N 12 19 30.15 1021 10 16.09344 0 0
10:53 pm 22:53 Cloudy 38 3.3 35 1.7 89 89 N 12 19 30.15 1021 10 16.09344 0 0
11:10 pm 23:10 Cloudy with Light Rain 38 3.3 35 1.7 89 89 N 10 17 30.18 1022 10 16.09344 0.001 0.001
11:20 pm 23:20 Cloudy 37 3 34 1 87 87 N 12 19 30.21 1023 10 16.09344 0 0
11:50 pm 23:50 Cloudy 37 3 36 2 93 93 N 7 11 30.21 1023 10 16.09344 0 0
11:53 pm 23:53 Cloudy 38 3.3 35 1.7 89 89 NNE 6 9 30.18 1022 10 16.09344 0.001 0.001

Powered by AerisWeather